Regional Weather Roundup
Issued by NWS

Home | Current Version | Previous Version | Text Only | Print | Product List | Glossary On
Versions: 1 2 3 4 5 6 7 8 9 10 11 12 13 14 15 16 17 18 19 20 21 22 23 24 25 26 27 28 29 30 31 32 33 34 35 36 37 38 39 40 41 42 43 44 45 46 47 48 49 50
000
ASUS43 KBIS 031610
RWRND

NORTH DAKOTA REGIONAL WEATHER ROUNDUP
NATIONAL WEATHER SERVICE BISMARCK ND
1000 AM CST TUE MAR 03 2015

NOTE: "FAIR" INDICATES FEW OR NO CLOUDS BELOW 12,000 FEET WITH NO
SIGNIFICANT WEATHER AND/OR OBSTRUCTIONS TO VISIBILITY.


NDZ001>003-009>011-017-031700-
NORTHWEST NORTH DAKOTA

CITY           SKY/WX    TMP DP  RH WIND       PRES   REMARKS
WILLISTON      PTSUNNY    4  -6  63 NW23G30   30.12R WCI -18
MINOT          LGT SNOW   2  -6  69 W25G32    30.01S WCI -22
MINOT AFB      CLOUDY     1  -6  75 NW23      30.01R BLWGSNOWWCI -23
$$

NDZ018>021-031>035-040>046-031700-
SOUTHWEST NORTH DAKOTA

CITY           SKY/WX    TMP DP  RH WIND       PRES   REMARKS
BISMARCK       SUNNY      9  -5  53 NW23G36   30.04R WCI -11
DICKINSON      PTSUNNY    8  -3  61 NW25G38   29.98S WCI -13
GARRISON         N/A      3  -6  66 NW28      30.01S WCI -21
HETTINGER ARPT PTSUNNY    9  -2  61 NW32G40   30.02S WCI -14
$$

NDZ004>008-012>016-024-026-027-054-031700-
NORTHEAST NORTH DAKOTA

CITY           SKY/WX    TMP DP  RH WIND       PRES   REMARKS
GRAND FORKS    CLOUDY     9   1  70 NW29      29.88R WCI -13
GRND FRKS AFB  CLOUDY     9  -2  61 NW24G32   29.88R WCI -12
DEVILS LAKE    SUNNY      3  -8  60 NW29G37   29.89S WCI -21
$$

NDZ022-023-025-028>030-036>039-047>053-031700-
SOUTHEAST NORTH DAKOTA

CITY           SKY/WX    TMP DP  RH WIND       PRES   REMARKS
FARGO          FLURRIES  14   3  61 NW29G38   29.86R WCI  -7
JAMESTOWN      CLOUDY     6  -3  66 NW30G38   29.92R WCI -18
$$




USA.gov is the U.S. government's official web portal to all federal, state and local government web resources and services.